Home   Weather   Kalamazoo   Past weeks

Flag for USA Past Weather in Kalamazoo, Michigan, USA — Yesterday and Last 2 Weeks

Now
52 °F

Light rain. Mostly cloudy.


Feels Like: 50 °F
Forecast: 46 / 53 °F
Wind: 7 mph from East

Location: Kalamazoo / Battle Creek International Airport

Current Time: Apr 29, 2017 at 3:50:05 pm

Latest Report: Apr 29, 2017 at 2:53 pm


Visibility: 10 mi

Pressure: 30.19 "Hg

Humidity: 66%

Dew Point: 41 °F

Location of KalamazooLocation

Past Weather in Kalamazoo — Graph

°F

Kalamazoo Temperature Yesterday

Maximum temperature yesterday: 61 °F (at 1:53 pm)
Minimum temperature yesterday: 40 °F (at 6:53 am)
Average temperature yesterday: 53 °F

High & Low Weather Summary for the Past Weeks

 TemperatureHumidityPressure
High81 °F (Apr 15, 1:53 pm)90% (Apr 16, 1:31 pm)30.28 "Hg (Apr 16, 1:31 pm)
Low36 °F (Apr 23, 3:53 am)13% (Apr 24, 2:53 pm)29.39 "Hg (Apr 27, 4:53 am)
Average59 °F58%29.95 "Hg
* Reported Apr 14 1:53 pm — Apr 29 1:53 pm, Kalamazoo, Weather by CustomWeather, © 2017

Note: Actual official high and low records may vary slightly from our data, if they occured in-between our weather recording intervals... More about our weather records

Advertising

Kalamazoo Weather History for the Previous 24 Hours

Scroll right to see more
 ConditionsComfort  
Time TempWeatherWind HumidityBarometerVisibility
1:53 pm
Sat, Apr 29
53 °FOvercast.8 mph55%30.20 "Hg10 mi
12:53 pm53 °FOvercast.6 mph52%30.20 "Hg10 mi
11:53 am52 °FOvercast.8 mph57%30.18 "Hg10 mi
10:53 am52 °FSunny.12 mph64%30.15 "Hg10 mi
9:53 am50 °FSunny.10 mph71%30.13 "Hg10 mi
8:53 am48 °FPassing clouds.9 mph71%30.13 "Hg10 mi
7:53 am48 °FScattered clouds.10 mph71%30.15 "Hg10 mi
6:53 am48 °FSunny.10 mph71%30.08 "Hg10 mi
5:53 am49 °FClear.12 mph66%30.05 "Hg10 mi
4:53 am52 °FClear.10 mph66%30.01 "Hg10 mi
3:53 am53 °FOvercast.8 mph69%30.01 "Hg10 mi
2:53 am55 °FMostly cloudy.No wind72%30.02 "Hg10 mi
1:53 am52 °FOvercast.7 mph80%29.98 "Hg10 mi
12:53 am53 °FOvercast.3 mph74%30.00 "Hg10 mi
11:53 pm
Fri, Apr 28
53 °FPassing clouds.3 mph74%29.96 "Hg10 mi
10:53 pm56 °FOvercast.6 mph70%29.97 "Hg10 mi
9:53 pm57 °FMostly cloudy.9 mph69%29.95 "Hg10 mi
8:53 pm59 °FOvercast.10 mph62%29.92 "Hg10 mi
7:53 pm60 °FOvercast.8 mph53%29.91 "Hg10 mi
6:53 pm61 °FBroken clouds.8 mph48%29.89 "Hg10 mi
5:53 pm61 °FOvercast.9 mph46%29.90 "Hg10 mi
4:53 pm60 °FOvercast.7 mph49%29.94 "Hg10 mi
3:53 pm59 °FOvercast.5 mph49%29.96 "Hg10 mi
Weather by CustomWeather, © 2017

See weather overviewHow to use our weather pages